TimePST,TemperatureF,Dew PointF,Humidity,Sea Level PressureIn,VisibilityMPH,Wind Direction,Wind SpeedMPH,Gust SpeedMPH,PrecipitationIn,Events,Conditions,WindDirDegrees,DateUTC
12:15 AM,19.4,5.0,54,30.33,10.0,Calm,Calm,-,N/A,,Clear,0,2012-11-12 08:15:00
12:35 AM,19.4,3.2,49,30.32,10.0,Calm,Calm,-,N/A,,Clear,0,2012-11-12 08:35:00
12:55 AM,19.4,3.2,49,30.32,10.0,Calm,Calm,-,N/A,,Clear,0,2012-11-12 08:55:00
1:15 AM,17.6,3.2,53,30.32,10.0,Calm,Calm,-,N/A,,Clear,0,2012-11-12 09:15:00
1:35 AM,17.6,3.2,53,30.32,10.0,Calm,Calm,-,N/A,,Clear,0,2012-11-12 09:35:00
1:55 AM,17.6,3.2,53,30.32,10.0,Calm,Calm,-,N/A,,Clear,0,2012-11-12 09:55:00
2:15 AM,17.6,3.2,53,30.32,10.0,Calm,Calm,-,N/A,,Clear,0,2012-11-12 10:15:00
2:35 AM,17.6,3.2,53,30.31,10.0,Calm,Calm,-,N/A,,Clear,0,2012-11-12 10:35:00
2:55 AM,17.6,1.4,49,30.32,10.0,Calm,Calm,-,N/A,,Clear,0,2012-11-12 10:55:00
3:15 AM,17.6,1.4,49,30.31,10.0,Calm,Calm,-,N/A,,Clear,0,2012-11-12 11:15:00
3:35 AM,17.6,3.2,53,30.31,10.0,Calm,Calm,-,N/A,,Clear,0,2012-11-12 11:35:00
3:55 AM,17.6,1.4,49,30.31,10.0,Calm,Calm,-,N/A,,Clear,0,2012-11-12 11:55:00
4:55 AM,15.8,3.2,58,30.31,10.0,Calm,Calm,-,N/A,,Clear,0,2012-11-12 12:55:00
5:15 AM,15.8,3.2,58,30.31,10.0,Calm,Calm,-,N/A,,Clear,0,2012-11-12 13:15:00
5:35 AM,15.8,3.2,58,30.31,10.0,Calm,Calm,-,N/A,,Clear,0,2012-11-12 13:35:00
5:55 AM,15.8,1.4,53,30.31,10.0,Calm,Calm,-,N/A,,Clear,0,2012-11-12 13:55:00
6:15 AM,14.0,3.2,62,30.31,10.0,Calm,Calm,-,N/A,,Clear,0,2012-11-12 14:15:00
6:35 AM,14.0,3.2,62,30.32,10.0,Calm,Calm,-,N/A,,Clear,0,2012-11-12 14:35:00
6:55 AM,15.8,3.2,58,30.33,10.0,Calm,Calm,-,N/A,,Clear,0,2012-11-12 14:55:00
7:15 AM,19.4,3.2,49,30.34,10.0,Calm,Calm,-,N/A,,Clear,0,2012-11-12 15:15:00
7:55 AM,24.8,5.0,43,30.34,10.0,Calm,Calm,-,N/A,,Clear,0,2012-11-12 15:55:00
8:15 AM,28.4,6.8,40,30.34,10.0,Calm,Calm,-,N/A,,Clear,0,2012-11-12 16:15:00
8:35 AM,32.0,6.8,35,30.34,10.0,Calm,Calm,-,N/A,,Clear,0,2012-11-12 16:35:00
8:55 AM,35.6,6.8,30,30.34,10.0,Calm,Calm,-,N/A,,Clear,0,2012-11-12 16:55:00
9:15 AM,39.2,5.0,24,30.34,10.0,Calm,Calm,-,N/A,,Clear,0,2012-11-12 17:15:00
9:35 AM,44.6,1.4,17,30.34,10.0,ENE,3.5,-,N/A,,Clear,60,2012-11-12 17:35:00
9:55 AM,50.0,-4.0,11,30.33,10.0,ESE,6.9,-,N/A,,Clear,110,2012-11-12 17:55:00
10:15 AM,50.0,-18.4,5,30.32,10.0,East,5.8,-,N/A,,Clear,80,2012-11-12 18:15:00
10:35 AM,50.0,-22.0,4,30.31,10.0,ENE,9.2,-,N/A,,Clear,70,2012-11-12 18:35:00
10:55 AM,51.8,-18.4,5,30.31,10.0,East,8.1,-,N/A,,Clear,90,2012-11-12 18:55:00
11:15 AM,51.8,-16.6,5,30.30,10.0,East,6.9,-,N/A,,Clear,100,2012-11-12 19:15:00
11:35 AM,51.8,-18.4,5,30.29,10.0,East,8.1,-,N/A,,Clear,100,2012-11-12 19:35:00
11:55 AM,53.6,-14.8,6,30.28,10.0,East,8.1,-,N/A,,Clear,100,2012-11-12 19:55:00
12:35 PM,53.6,-14.8,6,30.27,10.0,East,9.2,-,N/A,,Clear,80,2012-11-12 20:35:00
12:55 PM,51.8,-16.6,5,30.27,10.0,East,9.2,-,N/A,,Clear,100,2012-11-12 20:55:00
1:15 PM,51.8,-13.0,7,30.27,10.0,East,9.2,-,N/A,,Clear,100,2012-11-12 21:15:00
1:35 PM,51.8,-16.6,5,30.27,10.0,East,8.1,-,N/A,,Clear,90,2012-11-12 21:35:00
1:55 PM,51.8,-14.8,6,30.27,10.0,ESE,6.9,-,N/A,,Clear,110,2012-11-12 21:55:00
2:15 PM,51.8,-14.8,6,30.27,10.0,East,6.9,-,N/A,,Clear,80,2012-11-12 22:15:00
2:35 PM,51.8,-16.6,5,30.27,10.0,East,8.1,-,N/A,,Clear,80,2012-11-12 22:35:00
2:55 PM,51.8,-11.2,7,30.27,10.0,East,6.9,-,N/A,,Clear,90,2012-11-12 22:55:00
3:15 PM,51.8,-9.4,8,30.27,10.0,East,4.6,-,N/A,,Clear,100,2012-11-12 23:15:00
3:35 PM,51.8,-11.2,7,30.27,10.0,East,4.6,-,N/A,,Clear,100,2012-11-12 23:35:00
3:55 PM,50.0,-16.6,6,30.27,10.0,East,4.6,-,N/A,,Clear,80,2012-11-12 23:55:00
4:15 PM,48.2,-5.8,10,30.26,10.0,East,3.5,-,N/A,,Clear,100,2012-11-13 00:15:00
4:35 PM,44.6,-2.2,14,30.27,10.0,SE,4.6,-,N/A,,Clear,130,2012-11-13 00:35:00
4:55 PM,41.0,3.2,21,30.27,10.0,North,5.8,-,N/A,,Clear,10,2012-11-13 00:55:00
5:15 PM,37.4,3.2,24,30.28,10.0,Calm,Calm,-,N/A,,Clear,0,2012-11-13 01:15:00
5:35 PM,35.6,1.4,24,30.28,10.0,Calm,Calm,-,N/A,,Clear,0,2012-11-13 01:35:00
5:55 PM,33.8,8.6,35,30.28,10.0,Calm,Calm,-,N/A,,Clear,0,2012-11-13 01:55:00
6:15 PM,33.8,5.0,30,30.29,10.0,Calm,Calm,-,N/A,,Clear,0,2012-11-13 02:15:00
6:35 PM,32.0,8.6,38,30.30,10.0,Calm,Calm,-,N/A,,Clear,0,2012-11-13 02:35:00
6:55 PM,30.2,10.4,44,30.31,10.0,Calm,Calm,-,N/A,,Clear,0,2012-11-13 02:55:00
7:15 PM,30.2,8.6,40,30.31,10.0,Calm,Calm,-,N/A,,Clear,0,2012-11-13 03:15:00
7:35 PM,30.2,8.6,40,30.31,10.0,Calm,Calm,-,N/A,,Clear,0,2012-11-13 03:35:00
7:55 PM,28.4,10.4,47,30.32,10.0,Calm,Calm,-,N/A,,Clear,0,2012-11-13 03:55:00
8:15 PM,28.4,12.2,51,30.33,10.0,Calm,Calm,-,N/A,,Clear,0,2012-11-13 04:15:00
8:35 PM,28.4,12.2,51,30.33,10.0,Calm,Calm,-,N/A,,Clear,0,2012-11-13 04:35:00
8:55 PM,26.6,10.4,51,30.33,10.0,Calm,Calm,-,N/A,,Clear,0,2012-11-13 04:55:00
9:15 PM,26.6,8.6,47,30.34,10.0,Calm,Calm,-,N/A,,Clear,0,2012-11-13 05:15:00
9:35 PM,26.6,8.6,47,30.34,10.0,Calm,Calm,-,N/A,,Clear,0,2012-11-13 05:35:00
9:55 PM,26.6,10.4,51,30.34,10.0,Calm,Calm,-,N/A,,Clear,0,2012-11-13 05:55:00
10:15 PM,26.6,8.6,47,30.34,10.0,Calm,Calm,-,N/A,,Clear,0,2012-11-13 06:15:00
10:35 PM,24.8,10.4,54,30.35,10.0,Calm,Calm,-,N/A,,Clear,0,2012-11-13 06:35:00
10:55 PM,24.8,8.6,50,30.35,10.0,Calm,Calm,-,N/A,,Clear,0,2012-11-13 06:55:00
11:15 PM,23.0,10.4,59,30.34,10.0,Calm,Calm,-,N/A,,Clear,0,2012-11-13 07:15:00
11:55 PM,23.0,8.6,54,30.33,10.0,Calm,Calm,-,N/A,,Clear,0,2012-11-13 07:55:00